Location: NJAA Observatory
(40.6819°N, 74.8979°W)
Time: 07:58:51
(UTC-04:00)

Courier 1B - All Passes

Search period start: 23 July 2014 00:00
Search period end: 02 August 2014 00:00
Orbit: 963 x 1209 km, 28.3° (Epoch: 23 July)

Date Brightness Start Highest point End Pass type
(mag) Time Alt. Az. Time Alt. Az. Time Alt. Az.
23 Jul - 01:03:48 10° SW 01:10:15 29° S 01:16:32 10° ESE visible
23 Jul - 02:57:13 10° WSW 03:03:44 31° S 03:09:59 10° SE visible
23 Jul - 04:51:52 10° WSW 04:57:00 20° SSW 05:01:56 10° SSE visible
23 Jul - 22:20:00 10° S 22:23:20 13° SSE 22:26:39 10° SE visible
24 Jul - 00:10:19 10° SW 00:16:34 26° SSE 00:22:43 10° ESE night (unlit)
24 Jul - 02:03:22 10° WSW 02:10:04 32° S 02:16:30 10° ESE visible
24 Jul - 03:57:38 10° WSW 04:03:26 24° SSW 04:09:01 10° SE visible
24 Jul - 05:56:04 10° SSW 05:56:26 10° SSW 05:56:47 10° SSW daylight
24 Jul - 23:17:02 10° SSW 23:22:54 23° SSE 23:28:44 10° ESE visible
25 Jul - 01:09:37 10° WSW 01:16:22 32° S 01:22:55 10° ESE visible
25 Jul - 03:03:33 10° WSW 03:09:50 28° SSW 03:15:52 10° SE visible
25 Jul - 04:59:22 10° SW 05:02:57 14° SSW 05:06:27 10° S visible
25 Jul - 22:23:59 10° SSW 22:29:16 20° SSE 22:34:33 10° ESE visible
26 Jul - 00:15:59 10° SW 00:22:39 31° S 00:29:13 10° ESE visible
26 Jul - 02:09:35 10° WSW 02:16:10 30° S 02:22:33 10° SE visible
26 Jul - 04:04:35 10° WSW 04:09:26 18° SSW 04:14:08 10° SSE visible
26 Jul - 21:31:18 10° S 21:35:39 16° SSE 21:40:02 10° ESE visible
26 Jul - 23:22:28 10° SW 23:28:56 29° S 23:35:24 10° ESE visible
27 Jul - 01:15:43 10° WSW 01:22:28 32° S 01:29:04 10° SE night (unlit)
27 Jul - 03:10:13 10° WSW 03:15:51 22° SSW 03:21:20 10° SSE visible
27 Jul - 20:39:21 10° S 20:42:05 12° SSE 20:44:50 10° SE daylight
27 Jul - 22:29:06 10° SW 22:35:15 26° SSE 22:41:27 10° ESE visible
28 Jul - 00:21:57 10° WSW 00:28:45 33° S 00:35:29 10° ESE visible
28 Jul - 02:16:03 10° WSW 02:22:14 26° SSW 02:28:15 10° SE visible
28 Jul - 04:12:48 10° SW 04:15:20 12° SSW 04:17:51 10° S visible
28 Jul - 21:35:57 10° SSW 21:41:36 22° SSE 21:47:21 10° ESE visible
28 Jul - 23:28:18 10° SW 23:35:01 32° S 23:41:46 10° ESE visible
29 Jul - 01:22:03 10° WSW 01:28:33 29° S 01:34:57 10° SE night (unlit)
29 Jul - 03:17:30 10° WSW 03:21:48 16° SSW 03:26:02 10° S visible
29 Jul - 20:43:05 10° SSW 20:47:59 19° SSE 20:53:00 10° ESE visible
29 Jul - 22:34:46 10° SW 22:41:18 31° S 22:47:57 10° ESE visible
30 Jul - 00:28:11 10° WSW 00:34:51 31° S 00:41:30 10° SE visible
30 Jul - 02:22:56 10° WSW 02:28:13 20° SSW 02:33:26 10° SSE night (unlit)
30 Jul - 19:50:40 10° S 19:54:26 15° SSE 19:58:16 10° ESE daylight
30 Jul - 21:41:23 10° SW 21:47:37 28° SSE 21:54:01 10° ESE visible
30 Jul - 23:34:25 10° WSW 23:41:08 33° S 23:47:54 10° ESE visible
31 Jul - 01:28:41 10° WSW 01:34:35 24° SSW 01:40:26 10° SSE night (unlit)
31 Jul - 18:59:35 10° SSE 19:00:55 11° SSE 19:02:17 10° SE daylight
31 Jul - 20:48:10 10° SW 20:53:58 25° SSE 20:59:58 10° ESE visible
31 Jul - 22:40:46 10° WSW 22:47:24 33° S 22:54:11 10° ESE visible
01 Aug - 00:34:39 10° WSW 00:40:55 27° SSW 00:47:12 10° SE visible
01 Aug - 02:30:45 10° SW 02:34:08 13° SSW 02:37:30 10° S night (unlit)
01 Aug - 19:55:11 10° SSW 20:00:22 21° SSE 20:05:44 10° ESE daylight
01 Aug - 21:47:14 10° SW 21:53:42 32° S 22:00:23 10° ESE visible
01 Aug - 23:40:46 10° WSW 23:47:13 30° S 23:53:46 10° SE visible
